Tracking 18942 objects as of 18-Jan-2018
HD Live streaming from Space Station
objects crossing your sky now

IRIDIUM 113

Track IRIDIUM 113 now!
10-day predictions
IRIDIUM 113 is classified as:


NORAD ID: 42803
Int'l Code: 2017-039A
Perigee: 615.6 km
Apogee: 631.6 km
Inclination: 85.6 °
Period: 97.0 minutes
Semi major axis: 6994 km
RCS: Unknown
Launch date: June 25, 2017
Source: United States (US)
Launch site: AIR FORCE WESTERN TEST RANGE (AFWTR)
aabbcc
Your satellite tracking list
Your tracking list is empty




NASA's NSSDC Master Catalog

Two Line Element Set (TLE):
1 42803U 17039A   18017.47014137  .00000215  00000-0  22358-4 0  9993
2 42803  85.6136 173.4768 0011427 233.4272 126.5900 14.84092553 30492
Source of the keplerian elements: AFSPC